QPF
0.02 0.01 0.01 0.02 0.04 0.05 0.06 0.06 0.05 0.06 0.06 0.08 0.11 0.13 0.13 0.14 0.09 0.09 0.11 0.13 0.12 0.09 0.07 0.04 0.03 0.03 0.04 0.04 0.10 0.09 0.08 0.08 0.08 0.07 0.06 0.07 0.05 0.04 0.03 0.02 0.03 0.03 0.04
0.01 0.01 0.03 0.04 0.06 0.06 0.07 0.09 0.07 0.07 0.06 0.07 0.07 0.07 0.08 0.10 0.11 0.10 0.08 0.10 0.10 0.09 0.05 0.04 0.03 0.03 0.02 0.03 0.05 0.07 0.07 0.07 0.08 0.09 0.08 0.06 0.05 0.04 0.03 0.02 0.01 0.02 0.03
0.01 0.04 0.08 0.09 0.08 0.10 0.08 0.09 0.08 0.07 0.07 0.08 0.09 0.10 0.10 0.13 0.13 0.11 0.07 0.07 0.06 0.05 0.03 0.03 0.03 0.03 0.03 0.03 0.03 0.04 0.04 0.05 0.06 0.06 0.07 0.07 0.07 0.05 0.04 0.03 0.02 0.02 0.03
0.01 0.02 0.05 0.07 0.07 0.07 0.07 0.06 0.06 0.05 0.06 0.07 0.09 0.10 0.10 0.14 0.15 0.11 0.08 0.08 0.08 0.06 0.05 0.04 0.03 0.03 0.03 0.03 0.03 0.02 0.03 0.03 0.03 0.04 0.05 0.05 0.05 0.06 0.06 0.04 0.03 0.03 0.03
0.02 0.02 0.04 0.05 0.07 0.06 0.06 0.06 0.07 0.05 0.05 0.06 0.07 0.08 0.09 0.11 0.12 0.12 0.09 0.10 0.09 0.07 0.05 0.04 0.04 0.04 0.05 0.05 0.05 0.04 0.03 0.03 0.03 0.03 0.04 0.04 0.05 0.05 0.06 0.05 0.04 0.04 0.04
0.02 0.02 0.05 0.07 0.06 0.05 0.05 0.05 0.04 0.04 0.06 0.07 0.09 0.09 0.09 0.11 0.12 0.13 0.13 0.14 0.12 0.09 0.07 0.06 0.04 0.04 0.05 0.05 0.05 0.05 0.04 0.04 0.04 0.04 0.05 0.05 0.05 0.04 0.04 0.05 0.04 0.03 0.04
0.03 0.03 0.05 0.06 0.06 0.04 0.05 0.06 0.05 0.04 0.05 0.06 0.08 0.10 0.09 0.12 0.14 0.14 0.13 0.13 0.12 0.09 0.07 0.06 0.06 0.05 0.07 0.09 0.07 0.06 0.05 0.05 0.05 0.05 0.05 0.05 0.05 0.05 0.06 0.06 0.05 0.03 0.03
0.04 0.05 0.05 0.06 0.05 0.05 0.05 0.05 0.04 0.03 0.03 0.04 0.06 0.08 0.08 0.10 0.13 0.14 0.12 0.11 0.09 0.07 0.06 0.06 0.05 0.05 0.06 0.07 0.07 0.06 0.06 0.06 0.06 0.06 0.06 0.06 0.06 0.05 0.06 0.07 0.07 0.05 0.04
0.05 0.05 0.05 0.06 0.06 0.04 0.04 0.03 0.02 0.02 0.02 0.02 0.04 0.05 0.05 0.06 0.08 0.11 0.14 0.12 0.09 0.06 0.05 0.04 0.04 0.04 0.05 0.05 0.06 0.06 0.06 0.05 0.04 0.05 0.06 0.06 0.06 0.07 0.06 0.05 0.05 0.06 0.04
0.04 0.04 0.05 0.07 0.07 0.05 0.03 0.02 0.02 0.02 0.02 0.02 0.03 0.03 0.04 0.05 0.06 0.07 0.08 0.10 0.11 0.07 0.05 0.05 0.05 0.04 0.03 0.03 0.04 0.05 0.05 0.04 0.04 0.04 0.07 0.08 0.07 0.07 0.06 0.05 0.06 0.06 0.05
0.03 0.03 0.04 0.07 0.08 0.06 0.05 0.04 0.03 0.03 0.03 0.03 0.04 0.04 0.04 0.05 0.05 0.04 0.04 0.07 0.07 0.06 0.05 0.04 0.03 0.02 0.02 0.02 0.02 0.03 0.04 0.04 0.05 0.05 0.06 0.07 0.08 0.07 0.05 0.05 0.05 0.05 0.05
0.02 0.04 0.04 0.03 0.05 0.04 0.05 0.04 0.04 0.04 0.04 0.05 0.07 0.08 0.05 0.04 0.04 0.04 0.04 0.05 0.04 0.03 0.02 0.02 0.02 0.02 0.01 0.01 0.02 0.03 0.04 0.05 0.05 0.06 0.06 0.06 0.07 0.07 0.06 0.05 0.04 0.04 0.04
0.03 0.05 0.05 0.03 0.03 0.03 0.03 0.03 0.03 0.03 0.04 0.04 0.06 0.07 0.05 0.03 0.04 0.05 0.04 0.04 0.03 0.02 0.01 0.01 0.01 0.02 0.02 0.03 0.03 0.03 0.05 0.05 0.05 0.05 0.06 0.06 0.05 0.06 0.04 0.04 0.03 0.03 0.03
0.03 0.03 0.03 0.03 0.03 0.03 0.02 0.02 0.02 0.03 0.04 0.05 0.04 0.04 0.05 0.04 0.04 0.04 0.03 0.04 0.03 0.02 0.01 0.01 0.01 0.02 0.03 0.03 0.03 0.03 0.04 0.05 0.04 0.04 0.04 0.04 0.04 0.04 0.04 0.03 0.02 0.03 0.02
0.04 0.03 0.03 0.03 0.04 0.03 0.02 0.02 0.02 0.02 0.03 0.05 0.06 0.08 0.08 0.06 0.04 0.02 0.02 0.02 0.03 0.03 0.02 0.02 0.01 0.01 0.02 0.02 0.02 0.03 0.04 0.04 0.04 0.03 0.03 0.03 0.03 0.03 0.02 0.02 0.02 0.02 0.02
0.03 0.04 0.03 0.03 0.04 0.02 0.01 0.01 0.01 0.02 0.03 0.04 0.05 0.08 0.09 0.07 0.04 0.02 0.01 0.01 0.02 0.03 0.03 0.03 0.02 0.01 0.01 0.02 0.03 0.03 0.04 0.04 0.04 0.04 0.04 0.03 0.03 0.03 0.03 0.02 0.02 0.02 0.02
0.02 0.02 0.02 0.02 0.03 0.02 0.01 0.01 0.01 0.02 0.04 0.08 0.07 0.05 0.05 0.05 0.04 0.03 0.02 0.01 0.02 0.03 0.03 0.03 0.03 0.02 0.01 0.02 0.02 0.03 0.03 0.03 0.03 0.03 0.04 0.04 0.04 0.03 0.03 0.02 0.02 0.02 0.02
0.03 0.02 0.02 0.01 0.01 0.01 0.01 0.01 0.01 0.01 0.03 0.07 0.07 0.06 0.05 0.05 0.04 0.03 0.02 0.02 0.02 0.02 0.01 0.01 0.01 0.01 0.01 0.02 0.02 0.02 0.02 0.02 0.02 0.02 0.03 0.04 0.04 0.04 0.03 0.03 0.02 0.01 0.01
0.03 0.02 0.02 0.01 0.01 0.01 0.01 0.01 0.01 0.02 0.02 0.04 0.06 0.05 0.05 0.05 0.04 0.02 0.02 0.02 0.03 0.02 0.01 0.01 0.01 0.01 0.02 0.02 0.02 0.02 0.01 0.01 0.02 0.02 0.02 0.03 0.03 0.03 0.03 0.02 0.02 0.01 0.01
0.05 0.02 0.01 0.00 0.00 0.01 0.01 0.01 0.01 0.01 0.01 0.03 0.05 0.04 0.04 0.04 0.03 0.02 0.02 0.02 0.03 0.02 0.01 0.01 0.01 0.02 0.02 0.01 0.01 0.01 0.02 0.02 0.02 0.02 0.02 0.02 0.02 0.02 0.02 0.01 0.01 0.01 0.01
0.04 0.02 0.01 0.00 0.00 0.00 0.01 0.01 0.01 0.01 0.01 0.02 0.02 0.03 0.03 0.03 0.03 0.03 0.03 0.03 0.03 0.03 0.02 0.02 0.02 0.03 0.02 0.01 0.01 0.01 0.01 0.01 0.01 0.01 0.01 0.01 0.01 0.02 0.02 0.02 0.02 0.03 0.04
0.03 0.02 0.01 0.01 0.00 0.00 0.00 0.01 0.01 0.01 0.02 0.02 0.02 0.02 0.03 0.03 0.03 0.03 0.03 0.03 0.03 0.02 0.02 0.02 0.02 0.02 0.02 0.01 0.02 0.02 0.01 0.01 0.01 0.01 0.01 0.01 0.02 0.02 0.03 0.03 0.03 0.04 0.04
0.02 0.02 0.01 0.01 0.01 0.00 0.00 0.00 0.01 0.01 0.02 0.03 0.02 0.02 0.03 0.04 0.04 0.03 0.03 0.03 0.03 0.02 0.02 0.02 0.02 0.02 0.02 0.02 0.03 0.03 0.02 0.02 0.02 0.02 0.02 0.02 0.02 0.02 0.02 0.02 0.03 0.03 0.02
0.02 0.02 0.01 0.01 0.02 0.01 0.01 0.01 0.01 0.02 0.01 0.01 0.01 0.02 0.03 0.04 0.04 0.04 0.03 0.03 0.03 0.02 0.02 0.02 0.03 0.03 0.02 0.02 0.02 0.03 0.02 0.03 0.03 0.03 0.02 0.02 0.02 0.02 0.02 0.02 0.02 0.02 0.01
0.02 0.02 0.02 0.02 0.04 0.04 0.02 0.01 0.02 0.01 0.01 0.00 0.01 0.01 0.02 0.03 0.04 0.04 0.03 0.03 0.03 0.03 0.03 0.03 0.03 0.04 0.03 0.02 0.02 0.02 0.02 0.02 0.02 0.02 0.02 0.01 0.01 0.01 0.01 0.01 0.01 0.01 0.01
0.02 0.02 0.02 0.01 0.02 0.03 0.02 0.01 0.01 0.01 0.01 0.00 0.01 0.01 0.01 0.02 0.03 0.03 0.03 0.04 0.03 0.03 0.04 0.04 0.04 0.04 0.04 0.03 0.02 0.02 0.02 0.02 0.02 0.01 0.01 0.01 0.01 0.01 0.01 0.01 0.01 0.01 0.01
MSLP
1010.36 1010.74 1010.96 1011.02 1010.93 1010.71 1010.45 1010.20 1010.03 1009.99 1010.08 1010.30 1010.60 1010.94 1011.28 1011.55 1011.75 1011.88 1011.94 1011.97 1012.01 1012.09 1012.25 1012.49 1012.82 1013.23 1013.69 1014.19 1014.69 1015.19 1015.66 1016.10 1016.50 1016.86 1017.16 1017.41 1017.59 1017.71 1017.76 1017.75 1017.71 1017.65 1017.58
1010.59 1011.02 1011.27 1011.33 1011.19 1010.94 1010.64 1010.37 1010.22 1010.23 1010.40 1010.71 1011.10 1011.52 1011.91 1012.21 1012.41 1012.51 1012.55 1012.56 1012.59 1012.68 1012.84 1013.11 1013.45 1013.84 1014.26 1014.70 1015.12 1015.52 1015.91 1016.28 1016.65 1016.99 1017.32 1017.62 1017.87 1018.07 1018.19 1018.25 1018.26 1018.23 1018.18
1010.74 1011.23 1011.52 1011.58 1011.45 1011.18 1010.86 1010.60 1010.47 1010.53 1010.77 1011.16 1011.64 1012.14 1012.58 1012.92 1013.14 1013.25 1013.29 1013.30 1013.35 1013.45 1013.64 1013.90 1014.23 1014.60 1014.96 1015.31 1015.64 1015.94 1016.23 1016.52 1016.84 1017.17 1017.52 1017.85 1018.17 1018.42 1018.61 1018.73 1018.77 1018.76 1018.72
1010.78 1011.34 1011.69 1011.80 1011.69 1011.44 1011.14 1010.90 1010.80 1010.91 1011.21 1011.67 1012.22 1012.78 1013.28 1013.67 1013.93 1014.06 1014.13 1014.17 1014.23 1014.36 1014.56 1014.83 1015.14 1015.46 1015.76 1016.03 1016.25 1016.45 1016.65 1016.87 1017.14 1017.45 1017.80 1018.17 1018.52 1018.83 1019.06 1019.21 1019.27 1019.27 1019.22
1010.72 1011.37 1011.80 1011.98 1011.94 1011.74 1011.48 1011.28 1011.22 1011.37 1011.72 1012.23 1012.83 1013.44 1013.99 1014.42 1014.72 1014.90 1015.00 1015.07 1015.17 1015.32 1015.53 1015.80 1016.09 1016.37 1016.61 1016.80 1016.94 1017.06 1017.18 1017.35 1017.58 1017.87 1018.22 1018.60 1018.97 1019.30 1019.55 1019.71 1019.77 1019.75 1019.67
1010.58 1011.32 1011.86 1012.14 1012.19 1012.07 1011.88 1011.73 1011.72 1011.90 1012.28 1012.82 1013.45 1014.09 1014.67 1015.13 1015.46 1015.68 1015.82 1015.94 1016.06 1016.24 1016.46 1016.73 1017.00 1017.24 1017.44 1017.58 1017.67 1017.73 1017.81 1017.94 1018.14 1018.42 1018.76 1019.14 1019.51 1019.83 1020.07 1020.21 1020.25 1020.20 1020.08
1010.37 1011.21 1011.87 1012.28 1012.44 1012.42 1012.32 1012.24 1012.28 1012.49 1012.88 1013.42 1014.05 1014.69 1015.28 1015.75 1016.11 1016.36 1016.53 1016.68 1016.84 1017.03 1017.26 1017.53 1017.79 1018.01 1018.19 1018.30 1018.37 1018.42 1018.49 1018.60 1018.79 1019.05 1019.38 1019.73 1020.08 1020.37 1020.58 1020.69 1020.69 1020.61 1020.45
1010.09 1011.05 1011.82 1012.36 1012.65 1012.75 1012.75 1012.75 1012.84 1013.07 1013.47 1014.00 1014.61 1015.23 1015.80 1016.27 1016.63 1016.90 1017.09 1017.26 1017.44 1017.64 1017.89 1018.15 1018.41 1018.63 1018.81 1018.93 1019.01 1019.07 1019.15 1019.27 1019.45 1019.70 1020.00 1020.32 1020.62 1020.88 1021.04 1021.11 1021.08 1020.96 1020.78
1009.77 1010.82 1011.70 1012.36 1012.78 1013.01 1013.12 1013.21 1013.36 1013.62 1014.02 1014.53 1015.10 1015.69 1016.23 1016.68 1017.03 1017.30 1017.50 1017.68 1017.87 1018.08 1018.33 1018.59 1018.85 1019.09 1019.29 1019.43 1019.55 1019.64 1019.74 1019.88 1020.06 1020.29 1020.56 1020.83 1021.09 1021.28 1021.41 1021.44 1021.38 1021.25 1021.06
1009.44 1010.54 1011.51 1012.27 1012.81 1013.15 1013.38 1013.56 1013.78 1014.09 1014.49 1014.99 1015.53 1016.08 1016.58 1017.00 1017.34 1017.60 1017.80 1017.98 1018.17 1018.39 1018.64 1018.90 1019.17 1019.43 1019.65 1019.83 1019.98 1020.11 1020.24 1020.39 1020.57 1020.78 1021.01 1021.23 1021.42 1021.56 1021.64 1021.64 1021.58 1021.45 1021.28
1009.11 1010.23 1011.23 1012.06 1012.69 1013.15 1013.48 1013.77 1014.07 1014.43 1014.86 1015.36 1015.89 1016.41 1016.89 1017.29 1017.61 1017.86 1018.06 1018.24 1018.43 1018.65 1018.89 1019.16 1019.43 1019.70 1019.94 1020.15 1020.33 1020.49 1020.64 1020.80 1020.97 1021.15 1021.33 1021.49 1021.62 1021.71 1021.74 1021.73 1021.67 1021.57 1021.43
1008.82 1009.90 1010.90 1011.76 1012.45 1012.99 1013.43 1013.82 1014.22 1014.65 1015.14 1015.66 1016.20 1016.71 1017.18 1017.58 1017.89 1018.15 1018.35 1018.54 1018.74 1018.95 1019.19 1019.45 1019.72 1019.98 1020.23 1020.45 1020.64 1020.82 1020.98 1021.13 1021.28 1021.41 1021.54 1021.64 1021.71 1021.75 1021.75 1021.73 1021.68 1021.60 1021.51
1008.59 1009.59 1010.54 1011.39 1012.11 1012.72 1013.25 1013.75 1014.24 1014.77 1015.32 1015.89 1016.46 1016.99 1017.47 1017.88 1018.22 1018.49 1018.72 1018.92 1019.13 1019.35 1019.58 1019.83 1020.08 1020.33 1020.56 1020.77 1020.96 1021.13 1021.28 1021.41 1021.52 1021.61 1021.68 1021.72 1021.74 1021.73 1021.70 1021.66 1021.62 1021.58 1021.53
1008.43 1009.32 1010.18 1010.99 1011.72 1012.37 1012.99 1013.58 1014.18 1014.79 1015.42 1016.06 1016.67 1017.25 1017.76 1018.20 1018.57 1018.88 1019.14 1019.38 1019.61 1019.83 1020.06 1020.30 1020.53 1020.75 1020.95 1021.14 1021.30 1021.44 1021.56 1021.66 1021.73 1021.78 1021.79 1021.78 1021.75 1021.69 1021.64 1021.58 1021.54 1021.51 1021.47
1008.31 1009.08 1009.85 1010.60 1011.32 1012.01 1012.69 1013.37 1014.06 1014.77 1015.47 1016.17 1016.83 1017.45 1018.01 1018.50 1018.91 1019.27 1019.59 1019.87 1020.12 1020.37 1020.60 1020.82 1021.02 1021.21 1021.37 1021.52 1021.64 1021.75 1021.83 1021.89 1021.93 1021.93 1021.91 1021.85 1021.77 1021.68 1021.59 1021.51 1021.45 1021.40 1021.36
1008.21 1008.86 1009.54 1010.24 1010.95 1011.67 1012.41 1013.16 1013.94 1014.71 1015.48 1016.23 1016.93 1017.59 1018.18 1018.71 1019.18 1019.59 1019.96 1020.29 1020.59 1020.86 1021.10 1021.31 1021.49 1021.64 1021.76 1021.86 1021.94 1022.00 1022.05 1022.08 1022.09 1022.07 1022.02 1021.93 1021.83 1021.70 1021.58 1021.46 1021.36 1021.28 1021.20
1008.09 1008.64 1009.26 1009.92 1010.64 1011.39 1012.18 1013.00 1013.83 1014.65 1015.46 1016.23 1016.96 1017.63 1018.24 1018.80 1019.31 1019.77 1020.19 1020.58 1020.92 1021.22 1021.48 1021.68 1021.84 1021.96 1022.04 1022.10 1022.15 1022.18 1022.20 1022.21 1022.21 1022.17 1022.11 1022.01 1021.89 1021.74 1021.58 1021.42 1021.27 1021.13 1021.00
1007.90 1008.40 1008.98 1009.65 1010.38 1011.18 1012.02 1012.88 1013.75 1014.60 1015.42 1016.19 1016.90 1017.56 1018.17 1018.74 1019.27 1019.77 1020.24 1020.67 1021.05 1021.39 1021.66 1021.87 1022.02 1022.11 1022.17 1022.20 1022.21 1022.22 1022.23 1022.24 1022.24 1022.22 1022.16 1022.07 1021.94 1021.77 1021.58 1021.38 1021.18 1020.97 1020.76
1007.61 1008.10 1008.69 1009.38 1010.16 1011.01 1011.91 1012.82 1013.71 1014.57 1015.37 1016.11 1016.78 1017.41 1017.99 1018.54 1019.07 1019.59 1020.08 1020.55 1020.97 1021.33 1021.63 1021.85 1022.00 1022.08 1022.12 1022.14 1022.14 1022.14 1022.15 1022.17 1022.19 1022.18 1022.15 1022.07 1021.94 1021.77 1021.56 1021.32 1021.06 1020.79 1020.51
1007.23 1007.73 1008.36 1009.11 1009.96 1010.87 1011.83 1012.77 1013.69 1014.53 1015.31 1016.00 1016.63 1017.20 1017.73 1018.25 1018.77 1019.28 1019.78 1020.27 1020.72 1021.10 1021.42 1021.65 1021.81 1021.90 1021.93 1021.95 1021.95 1021.96 1021.98 1022.02 1022.06 1022.08 1022.07 1022.01 1021.89 1021.72 1021.50 1021.23 1020.93 1020.60 1020.27
1006.75 1007.30 1007.99 1008.81 1009.74 1010.72 1011.73 1012.72 1013.65 1014.49 1015.24 1015.89 1016.46 1016.97 1017.46 1017.93 1018.42 1018.92 1019.42 1019.91 1020.37 1020.77 1021.10 1021.35 1021.52 1021.62 1021.66 1021.68 1021.70 1021.72 1021.76 1021.82 1021.88 1021.93 1021.94 1021.90 1021.80 1021.63 1021.39 1021.11 1020.78 1020.42 1020.05
1006.22 1006.81 1007.57 1008.47 1009.47 1010.53 1011.60 1012.63 1013.58 1014.42 1015.14 1015.76 1016.29 1016.76 1017.20 1017.64 1018.10 1018.57 1019.06 1019.55 1020.01 1020.42 1020.76 1021.02 1021.20 1021.32 1021.38 1021.42 1021.45 1021.49 1021.55 1021.63 1021.70 1021.76 1021.79 1021.76 1021.67 1021.50 1021.27 1020.97 1020.64 1020.27 1019.89
1005.65 1006.30 1007.12 1008.08 1009.15 1010.27 1011.39 1012.46 1013.43 1014.28 1015.01 1015.62 1016.13 1016.58 1016.99 1017.41 1017.84 1018.29 1018.77 1019.24 1019.69 1020.10 1020.45 1020.72 1020.92 1021.05 1021.14 1021.20 1021.25 1021.31 1021.39 1021.47 1021.56 1021.62 1021.65 1021.62 1021.52 1021.36 1021.13 1020.84 1020.51 1020.15 1019.78
1005.08 1005.77 1006.65 1007.66 1008.78 1009.94 1011.10 1012.20 1013.20 1014.07 1014.81 1015.43 1015.96 1016.41 1016.82 1017.23 1017.65 1018.09 1018.54 1019.00 1019.44 1019.84 1020.18 1020.46 1020.68 1020.83 1020.95 1021.04 1021.11 1021.20 1021.28 1021.37 1021.45 1021.51 1021.52 1021.49 1021.38 1021.21 1020.99 1020.71 1020.40 1020.07 1019.73
1004.54 1005.28 1006.19 1007.23 1008.37 1009.55 1010.72 1011.84 1012.86 1013.76 1014.53 1015.18 1015.74 1016.22 1016.65 1017.07 1017.50 1017.93 1018.37 1018.80 1019.22 1019.61 1019.95 1020.24 1020.47 1020.65 1020.79 1020.91 1021.02 1021.12 1021.22 1021.31 1021.38 1021.42 1021.41 1021.35 1021.24 1021.06 1020.84 1020.58 1020.30 1020.01 1019.72
1004.06 1004.85 1005.79 1006.83 1007.97 1009.13 1010.29 1011.40 1012.43 1013.35 1014.15 1014.84 1015.44 1015.97 1016.44 1016.89 1017.32 1017.75 1018.18 1018.59 1018.99 1019.36 1019.70 1019.99 1020.23 1020.44 1020.61 1020.77 1020.91 1021.03 1021.14 1021.23 1021.29 1021.31 1021.28 1021.20 1021.07 1020.89 1020.68 1020.44 1020.20 1019.96 1019.73
Thickness
5762 5759 5756 5754 5752 5749 5746 5744 5741 5738 5737 5733 5730 5726 5723 5723 5723 5723 5723 5722 5721 5719 5718 5716 5714 5712 5710 5710 5709 5707 5705 5703 5702 5698 5695 5696 5697 5696 5697 5696 5694 5692 5691
5754 5752 5749 5747 5745 5742 5741 5738 5736 5734 5733 5731 5729 5727 5723 5721 5721 5720 5720 5718 5718 5717 5715 5713 5710 5709 5707 5705 5704 5703 5700 5699 5698 5693 5687 5684 5685 5689 5693 5691 5690 5688 5687
5751 5747 5743 5741 5740 5737 5735 5735 5733 5731 5729 5728 5725 5722 5719 5716 5715 5714 5714 5714 5714 5714 5712 5710 5707 5705 5703 5701 5700 5699 5697 5693 5692 5692 5686 5679 5676 5679 5684 5686 5686 5684 5682
5750 5745 5741 5737 5735 5734 5734 5732 5730 5727 5725 5724 5721 5718 5714 5711 5711 5711 5710 5710 5710 5710 5709 5706 5704 5702 5700 5698 5697 5696 5694 5691 5687 5687 5686 5684 5680 5674 5673 5678 5680 5680 5678
5747 5744 5741 5737 5735 5734 5731 5728 5725 5723 5721 5720 5718 5715 5712 5709 5708 5707 5706 5705 5705 5705 5704 5703 5700 5698 5697 5695 5694 5692 5690 5688 5686 5683 5681 5679 5677 5675 5670 5668 5671 5672 5674
5745 5742 5740 5736 5732 5729 5726 5723 5720 5718 5717 5716 5714 5712 5708 5706 5703 5702 5701 5700 5700 5699 5699 5698 5696 5695 5694 5692 5691 5689 5687 5685 5683 5681 5679 5676 5672 5670 5667 5664 5664 5664 5667
5740 5737 5734 5730 5727 5724 5722 5719 5716 5713 5712 5711 5710 5708 5705 5703 5701 5699 5697 5695 5694 5694 5694 5694 5692 5691 5690 5689 5688 5686 5684 5683 5681 5679 5677 5675 5672 5670 5667 5663 5660 5660 5661
5735 5733 5731 5728 5724 5722 5718 5715 5712 5709 5708 5707 5705 5705 5703 5700 5698 5696 5695 5692 5691 5691 5691 5689 5689 5688 5687 5686 5684 5682 5681 5680 5678 5676 5674 5672 5670 5668 5666 5662 5658 5655 5654
5730 5729 5728 5725 5721 5718 5715 5713 5710 5706 5704 5703 5702 5700 5699 5697 5694 5692 5691 5689 5688 5688 5687 5686 5685 5684 5683 5682 5680 5678 5676 5675 5674 5672 5670 5668 5667 5665 5664 5662 5659 5654 5648
5725 5724 5722 5719 5718 5716 5713 5711 5708 5704 5702 5700 5699 5698 5695 5693 5691 5689 5687 5686 5685 5685 5684 5682 5682 5681 5679 5678 5676 5674 5673 5671 5669 5668 5666 5665 5663 5661 5660 5658 5657 5655 5650
5721 5718 5717 5715 5713 5712 5709 5706 5703 5700 5698 5697 5695 5693 5691 5690 5688 5686 5685 5683 5682 5681 5680 5678 5677 5676 5675 5674 5672 5670 5669 5667 5665 5663 5662 5661 5660 5657 5655 5654 5652 5650 5648
5716 5714 5712 5710 5708 5706 5704 5701 5699 5697 5695 5693 5691 5689 5688 5686 5684 5683 5681 5680 5678 5677 5676 5674 5673 5671 5671 5670 5668 5666 5665 5663 5661 5660 5658 5656 5655 5652 5650 5649 5647 5646 5644
5710 5708 5706 5704 5703 5700 5699 5698 5696 5694 5693 5690 5687 5685 5683 5682 5680 5679 5677 5676 5674 5672 5671 5670 5668 5667 5667 5666 5665 5663 5661 5660 5658 5656 5654 5652 5650 5647 5645 5643 5642 5641 5640
5703 5701 5699 5697 5697 5696 5695 5693 5691 5690 5689 5686 5683 5681 5679 5678 5676 5675 5673 5671 5669 5667 5666 5665 5664 5664 5663 5662 5661 5659 5657 5656 5654 5653 5651 5649 5647 5644 5642 5640 5638 5637 5634
5697 5696 5694 5692 5691 5690 5689 5689 5687 5686 5685 5682 5679 5678 5676 5674 5672 5670 5668 5666 5664 5663 5661 5660 5660 5659 5659 5658 5657 5655 5654 5651 5649 5648 5647 5646 5645 5643 5640 5638 5635 5633 5630
5693 5692 5691 5689 5687 5685 5684 5683 5682 5681 5680 5677 5675 5674 5671 5669 5667 5664 5662 5660 5659 5658 5657 5656 5655 5655 5656 5655 5653 5652 5649 5648 5646 5644 5643 5642 5641 5640 5638 5636 5634 5631 5627
5690 5688 5687 5685 5683 5681 5680 5678 5677 5676 5674 5671 5669 5667 5665 5663 5662 5661 5657 5655 5654 5653 5652 5651 5651 5650 5651 5651 5650 5648 5646 5644 5642 5640 5638 5638 5638 5635 5633 5631 5629 5627 5625
5686 5684 5682 5679 5677 5676 5674 5673 5672 5670 5667 5665 5662 5661 5659 5657 5656 5655 5652 5651 5649 5648 5647 5647 5647 5646 5647 5646 5646 5644 5642 5640 5638 5637 5636 5634 5633 5632 5629 5626 5623 5622 5620
5682 5680 5678 5675 5672 5670 5668 5667 5665 5663 5661 5658 5657 5656 5654 5652 5650 5649 5647 5646 5644 5643 5643 5643 5643 5642 5643 5643 5642 5640 5637 5635 5634 5634 5633 5631 5629 5628 5625 5621 5618 5617 5616
5677 5674 5671 5669 5666 5664 5662 5659 5657 5655 5654 5653 5652 5651 5649 5647 5645 5644 5642 5641 5640 5639 5640 5639 5639 5639 5638 5639 5638 5636 5633 5630 5629 5628 5628 5627 5625 5623 5621 5617 5614 5612 5612
5672 5669 5666 5662 5660 5658 5656 5653 5651 5649 5650 5649 5648 5646 5644 5642 5641 5640 5638 5637 5635 5634 5634 5634 5635 5635 5635 5635 5634 5632 5628 5626 5624 5623 5622 5622 5621 5619 5617 5614 5611 5610 5608
5664 5662 5658 5655 5654 5653 5651 5648 5646 5647 5646 5645 5642 5641 5639 5638 5638 5634 5633 5632 5631 5629 5628 5628 5629 5631 5631 5631 5630 5628 5626 5624 5621 5620 5619 5618 5617 5615 5613 5610 5609 5607 5604
5655 5653 5652 5649 5648 5647 5646 5643 5643 5642 5641 5639 5637 5636 5634 5633 5632 5629 5628 5626 5626 5625 5624 5624 5624 5626 5626 5626 5626 5624 5622 5620 5618 5617 5616 5614 5612 5609 5607 5606 5604 5602 5599
5647 5646 5645 5643 5641 5642 5641 5639 5638 5637 5635 5633 5631 5630 5628 5627 5626 5625 5624 5622 5621 5620 5620 5621 5621 5621 5621 5621 5620 5618 5616 5615 5613 5611 5610 5608 5606 5605 5603 5602 5600 5598 5596
5640 5639 5638 5637 5637 5637 5635 5635 5633 5632 5629 5628 5626 5625 5623 5622 5621 5620 5619 5619 5620 5619 5618 5619 5618 5617 5617 5619 5617 5614 5612 5610 5608 5605 5603 5601 5600 5599 5598 5597 5596 5595 5593
5633 5632 5631 5631 5631 5631 5630 5629 5629 5627 5625 5622 5621 5620 5619 5617 5616 5615 5615 5617 5617 5618 5617 5617 5617 5618 5618 5616 5613 5611 5609 5607 5604 5601 5598 5597 5597 5596 5595 5594 5594 5593 5591